Station TAQT2 - 8775296 - USS Lexington, TX Image indicating link to RSS feed of recent meteorological observations for station TAQT2


Conditions at TAQT2 as of
(2:00 pm CDT)
1900 GMT on 06/22/2024:
     

Click on the graph icon in the table below to see a time series plot of the last five days of that observation.

5-day plot - Atmospheric Pressure Atmospheric Pressure (PRES):29.95 in
5-day plot - Pressure Tendency Pressure Tendency (PTDY):-0.02 in ( Falling )
5-day plot - Water Temperature Water Temperature (WTMP): 85.6 °F
Previous observations
TIME
(CDT)
5-day plot - Wind Direction
WDIR
 
5-day plot - Wind Speed
WSPD
kts
5-day plot - Wind Gust
GST
kts
5-day plot - Wave Height
WVHT
ft
5-day plot - Dominant Wave Period
DPD
sec
5-day plot - Average Wave Period
APD
sec
5-day plot - Mean Wave Direction
MWD
 
5-day plot - Atmospheric Pressure
PRES
in
5-day plot - Pressure Tendency
PTDY
in
5-day plot - Air Temperature
ATMP
°F
5-day plot - Water Temperature
WTMP
°F
5-day plot - Dew Point
DEWP
°F
5-day plot - Salinity
SAL
psu
5-day plot - Visibility
VIS
nmi
5-day plot - Tide (above MLLW)
TIDE
ft
2024-06-22 01:54 pm-------29.95-- 85.5----
2024-06-22 01:48 pm-------29.95-- 85.5----
2024-06-22 01:42 pm-------29.95-- 85.5----
2024-06-22 01:36 pm-------29.95-- 85.3----
2024-06-22 01:30 pm-------29.95-- 85.3----
2024-06-22 01:24 pm-------29.95-- 85.3----
2024-06-22 01:18 pm-------29.95-------
2024-06-22 01:12 pm-------29.96-------
2024-06-22 01:06 pm-------29.96-------
2024-06-22 01:00 pm-------29.96-0.01- 85.1----
2024-06-22 12:54 pm-------29.96-- 85.1----
2024-06-22 12:48 pm-------29.96-- 85.1----
2024-06-22 12:42 pm-------29.96-- 84.9----
2024-06-22 12:36 pm-------29.96-- 84.9----
2024-06-22 12:30 pm-------29.96-- 84.7----
2024-06-22 12:24 pm-------29.96-- 84.7----
2024-06-22 12:18 pm-------29.96-- 84.6----
2024-06-22 12:12 pm-------29.96-- 84.6----
2024-06-22 12:06 pm-------29.96-- 84.6----
2024-06-22 12:00 pm-------29.97-0.02- 84.6----
2024-06-22 11:54 am-------29.96-- 84.6----
2024-06-22 11:48 am-------29.97-- 84.4----
2024-06-22 11:42 am-------29.97-- 84.4----
2024-06-22 11:36 am-------29.97-- 84.4----
2024-06-22 11:30 am-------29.97-- 84.4----
2024-06-22 11:24 am-------29.97-- 84.4----
2024-06-22 11:18 am-------29.97-- 84.2----
2024-06-22 11:12 am-------29.97-- 84.2----
2024-06-22 11:06 am-------29.97-- 84.2----
2024-06-22 11:00 am-------29.97+0.00- 84.0----
2024-06-22 10:54 am-------29.97-- 84.0----
2024-06-22 10:48 am-------29.97-- 83.8----
2024-06-22 10:42 am-------29.97-- 83.8----
2024-06-22 10:36 am-------29.97-- 83.7----
2024-06-22 10:30 am-------29.97-- 83.7----
2024-06-22 10:24 am-------29.97-- 83.7----
2024-06-22 10:18 am-------29.97-- 83.7----
2024-06-22 10:12 am-------29.97-- 83.7----
2024-06-22 10:06 am-------29.97-- 83.7----
2024-06-22 10:00 am-------29.97+0.00- 83.5----
2024-06-22 09:54 am-------29.97-- 83.5----
2024-06-22 09:48 am-------29.97-- 83.5----
2024-06-22 09:42 am-------29.97-- 83.5----
2024-06-22 09:36 am-------29.97-- 83.3----
2024-06-22 09:30 am-------29.98-- 83.3----
2024-06-22 09:24 am-------29.98-- 83.3----
2024-06-22 09:18 am---------- 83.3----
2024-06-22 09:12 am---------- 83.1----
2024-06-22 09:06 am---------- 83.1----
2024-06-22 09:00 am-------29.99+0.03- 83.1----
2024-06-22 08:54 am-------29.98-- 83.1----
2024-06-22 08:48 am-------29.99-- 82.9----
2024-06-22 08:42 am-------29.98-- 82.9----
2024-06-22 08:36 am-------29.98-- 82.9----
2024-06-22 08:30 am-------29.98-- 82.9----
2024-06-22 08:24 am-------29.98-- 82.9----
2024-06-22 08:18 am-------29.98-- 82.9----
2024-06-22 08:12 am-------29.98-- 82.9----
2024-06-22 08:06 am-------29.98-- 82.9----
2024-06-22 08:00 am-------29.97+0.01------
2024-06-22 07:54 am-------29.97-------
2024-06-22 07:48 am-------29.97-------
2024-06-22 07:42 am-------29.97-------
2024-06-22 07:36 am-------29.98-------
2024-06-22 07:30 am---------- 82.8----
2024-06-22 07:24 am---------- 82.9----
2024-06-22 07:18 am-------29.97-- 82.9----
2024-06-22 07:12 am-------29.97-- 82.9----
2024-06-22 07:06 am-------29.97-- 82.9----
2024-06-22 07:00 am-------29.97+0.01- 82.9----
2024-06-22 06:54 am-------29.97-- 83.1----
2024-06-22 06:48 am-------29.97-- 83.1----
2024-06-22 06:42 am-------29.97-- 83.1----
2024-06-22 06:36 am-------29.96-- 83.1----
2024-06-22 06:30 am-------29.96-- 83.1----
2024-06-22 06:24 am-------29.96-- 83.1----
2024-06-22 06:18 am-------29.96-- 83.1----
2024-06-22 06:12 am-------29.96-- 83.1----
2024-06-22 06:06 am-------29.96-- 83.3----
2024-06-22 06:00 am-------29.96+0.00- 83.3----
2024-06-22 05:54 am-------29.96-- 83.3----
2024-06-22 05:48 am-------29.96-- 83.3----
2024-06-22 05:42 am-------29.96-- 83.3----
2024-06-22 05:36 am-------29.96-- 83.1----
2024-06-22 05:30 am-------29.96-------
2024-06-22 05:24 am-------29.96-------
2024-06-22 05:18 am-------29.96-- 83.1----
2024-06-22 05:12 am-------29.96-- 83.3----
2024-06-22 05:06 am-------29.96-- 83.3----
2024-06-22 05:00 am-------29.96-0.01- 83.3----
2024-06-22 04:54 am-------29.96-- 83.3----
2024-06-22 04:48 am-------29.96-- 83.1----
2024-06-22 04:42 am-------29.96-- 83.3----
2024-06-22 04:36 am-------29.96-- 83.3----
2024-06-22 04:30 am-------29.95-- 83.3----
2024-06-22 04:24 am-------29.95-- 83.3----
2024-06-22 04:18 am-------29.95-- 83.3----
2024-06-22 04:12 am-------29.95-- 83.5----
2024-06-22 04:06 am-------29.95-- 83.5----
2024-06-22 04:00 am-------29.96-0.02- 83.5----
2024-06-22 03:54 am-------29.96-- 83.5----
2024-06-22 03:48 am-------29.96-- 83.5----
2024-06-22 03:42 am-------29.96-- 83.5----
2024-06-22 03:36 am-------29.96-- 83.7----
2024-06-22 03:30 am-------29.96-- 83.7----
2024-06-22 03:24 am-------29.96-- 83.8----
2024-06-22 03:18 am-------29.96-- 83.8----
2024-06-22 03:12 am-------29.96-- 84.0----
2024-06-22 03:06 am-------29.96-- 84.0----
2024-06-22 03:00 am-------29.96-0.02- 84.0----
2024-06-22 02:54 am-------29.96-- 84.0----
2024-06-22 02:48 am-------29.96-- 84.0----
2024-06-22 02:42 am-------29.96-- 84.0----
2024-06-22 02:36 am-------29.96-- 84.0----
2024-06-22 02:30 am-------29.97-- 84.0----
2024-06-22 02:24 am-------29.97-- 84.0----
2024-06-22 02:18 am-------29.97-- 84.0----
2024-06-22 02:12 am-------29.97-- 84.0----
2024-06-22 02:06 am-------29.97-- 84.0----
2024-06-22 02:00 am-------29.97-0.01- 84.0----
2024-06-22 01:54 am-------29.97-- 84.0----
2024-06-22 01:48 am-------29.97-- 84.0----
2024-06-22 01:42 am-------29.97-- 84.0----
2024-06-22 01:36 am-------29.97-- 84.0----
2024-06-22 01:30 am-------29.97-- 84.0----
2024-06-22 01:24 am-------29.97-- 84.0----
2024-06-22 01:18 am-------29.97-- 84.0----
2024-06-22 01:12 am-------29.97-- 84.2----
2024-06-22 01:06 am-------29.97-- 84.2----
2024-06-22 01:00 am-------29.97+0.00- 84.2----
2024-06-22 12:54 am-------29.97-- 84.0----
2024-06-22 12:48 am-------29.97-- 84.2----
2024-06-22 12:42 am-------29.98-- 84.2----
2024-06-22 12:36 am-------29.98-- 84.2----
2024-06-22 12:30 am-------29.98-- 84.2----
2024-06-22 12:24 am-------29.98-- 84.2----
2024-06-22 12:18 am-------29.98-- 84.4----
2024-06-22 12:12 am-------29.98-- 84.4----
2024-06-22 12:06 am-------29.98-- 84.4----
2024-06-22 12:00 am-------29.98+0.02- 84.4----
2024-06-21 11:54 pm-------29.98-- 84.4----
2024-06-21 11:48 pm-------29.98-- 84.6----
2024-06-21 11:42 pm-------29.98-- 84.6----
2024-06-21 11:36 pm-------29.98-- 84.7----
2024-06-21 11:30 pm-------29.98-- 84.7----
2024-06-21 11:24 pm-------29.98-- 84.7----
2024-06-21 11:18 pm-------29.98-- 84.9----
2024-06-21 11:12 pm-------29.98-- 84.9----
2024-06-21 11:06 pm-------29.98-- 84.9----
2024-06-21 11:00 pm-------29.98+0.02- 84.9----
2024-06-21 10:54 pm-------29.98-- 85.1----
2024-06-21 10:48 pm-------29.98-- 85.1----
2024-06-21 10:42 pm-------29.98-- 84.9----
2024-06-21 10:36 pm-------29.98-- 85.1----
2024-06-21 10:30 pm-------29.98-- 85.3----
2024-06-21 10:24 pm-------29.98-- 85.3----
2024-06-21 10:18 pm-------29.98-- 85.3----
2024-06-21 10:12 pm-------29.98-- 85.5----
2024-06-21 10:06 pm-------29.98-- 85.5----
2024-06-21 10:00 pm-------29.98-- 85.5----
2024-06-21 09:54 pm-------29.98-- 85.5----
2024-06-21 09:48 pm-------29.97-- 85.6----
2024-06-21 09:42 pm-------29.97-- 85.8----
2024-06-21 09:36 pm-------29.97-- 86.0----
2024-06-21 09:30 pm-------29.97-- 86.0----
2024-06-21 09:24 pm-------29.97-- 86.2----
2024-06-21 09:18 pm-------29.96-- 86.2----
2024-06-21 09:12 pm-------29.97-- 86.4----
2024-06-21 09:06 pm-------29.96-- 86.4----
2024-06-21 09:00 pm-------29.96+0.01- 86.4----
2024-06-21 08:54 pm-------29.96-- 86.4----
2024-06-21 08:48 pm-------29.96-- 86.5----
2024-06-21 08:42 pm-------29.96-- 86.5----
2024-06-21 08:36 pm-------29.96-- 86.5----
2024-06-21 08:30 pm-------29.96-- 86.7----
2024-06-21 08:24 pm-------29.96-- 86.7----
2024-06-21 08:18 pm-------29.96-- 86.9----
2024-06-21 08:12 pm-------29.96-- 86.9----
2024-06-21 08:06 pm-------29.96-- 86.9----
2024-06-21 08:00 pm-------29.96+0.00- 87.1----
2024-06-21 07:54 pm-------29.96-- 87.1----
2024-06-21 07:48 pm-------29.96-- 87.3----
2024-06-21 07:42 pm-------29.96-- 87.3----
2024-06-21 07:36 pm-------29.96-- 87.3----
2024-06-21 07:30 pm-------29.96-- 87.3----
2024-06-21 07:24 pm-------29.96-- 87.1----
2024-06-21 07:18 pm-------29.96-- 86.9----
2024-06-21 07:12 pm-------29.95-- 86.7----
2024-06-21 07:06 pm-------29.95-- 86.4----
2024-06-21 07:00 pm---------- 86.4----
2024-06-21 06:54 pm---------- 86.4----
2024-06-21 06:48 pm-------29.95-- 86.4----
2024-06-21 06:42 pm-------29.95-- 86.4----
2024-06-21 06:36 pm-------29.95-- 86.4----
2024-06-21 06:30 pm-------29.95-- 86.4----
2024-06-21 06:24 pm-------29.95-- 86.4----
2024-06-21 06:18 pm-------29.95-- 86.2----
2024-06-21 06:12 pm-------29.95-- 86.2----
2024-06-21 06:06 pm-------29.95-- 86.2----
2024-06-21 06:00 pm-------29.95-0.04- 86.0----
2024-06-21 05:54 pm-------29.95-- 86.0----
2024-06-21 05:48 pm-------29.96-- 86.0----
2024-06-21 05:42 pm-------29.95-- 86.0----
2024-06-21 05:36 pm-------29.96-- 86.0----
2024-06-21 05:30 pm-------29.95-- 86.0----
2024-06-21 05:24 pm-------29.96-- 86.0----
2024-06-21 05:18 pm-------29.96-- 85.8----
2024-06-21 05:12 pm-------29.96-- 85.8----
2024-06-21 05:06 pm-------29.96-- 85.6----
2024-06-21 05:00 pm-------29.96-0.05- 85.6----
2024-06-21 04:54 pm-------29.96-- 85.6----
2024-06-21 04:48 pm-------29.96-- 85.6----
2024-06-21 04:42 pm-------29.96-- 85.6----
2024-06-21 04:36 pm-------29.96-- 85.6----
2024-06-21 04:30 pm-------29.96-- 85.6----
2024-06-21 04:24 pm-------29.96-- 85.8----
2024-06-21 04:18 pm-------29.97-- 85.8----
2024-06-21 04:12 pm-------29.97-- 85.8----
2024-06-21 04:06 pm-------29.97-- 85.8----
2024-06-21 04:00 pm-------29.97-0.04- 85.8----
2024-06-21 03:54 pm-------29.97-- 85.8----
2024-06-21 03:48 pm-------29.98-- 85.8----
2024-06-21 03:42 pm-------29.98-- 85.6----
2024-06-21 03:36 pm-------29.98-- 85.6----
2024-06-21 03:30 pm-------29.98-- 85.5----
2024-06-21 03:24 pm-------29.98-- 85.5----
2024-06-21 03:18 pm-------29.98-- 85.5----
2024-06-21 03:12 pm-------29.98-- 85.5----
2024-06-21 03:06 pm-------29.98-- 85.5----
2024-06-21 03:00 pm-------29.99-0.04- 85.5----
2024-06-21 02:54 pm-------29.99-- 85.5----
2024-06-21 02:48 pm-------29.99-- 85.5----
2024-06-21 02:42 pm-------29.99-- 85.3----
2024-06-21 02:36 pm-------29.99-- 85.3----
2024-06-21 02:30 pm-------30.00-- 85.3----
2024-06-21 02:24 pm-------30.00-- 85.3----
2024-06-21 02:18 pm-------30.01-- 85.1----
2024-06-21 02:12 pm-------30.01-- 85.1----
2024-06-21 02:06 pm-------30.01-- 85.1----
2024-06-21 02:00 pm-------30.01-0.02- 84.9----
2024-06-21 01:54 pm-------30.01-- 84.9----